Terminal Aerodrome Forecast
Issued by NWS Sterling, VA

Current Version | Previous Version | Graphics & Text | Print | Product List | Glossary On
Versions: 1 2 3 4 5 6 7 8 9 10 11 12 13 14 15 16 17 18 19 20 21 22 23 24 25
566
FTUS41 KLWX 160536
TAFDCA
TAF
KDCA 160536Z 1606/1706 12003KT P6SM BKN045 OVC110
     FM161500 VRB03KT P6SM OVC025
     FM162300 17004KT P6SM OVC015=

USA.gov is the U.S. government's official web portal to all federal, state and local government web resources and services.